Edinburg, TX

1:34 AM CDT on June 28, 2017 (GMT -0500)
Edinburg

Weather History for KEBG - April, 2013

Change the Weather History Date:

Friday, April 12, 2013

  Actual Average (KMFE) Record (KMFE)
Temperature  
Mean Temperature 70 °F -  
Max Temperature 86 °F 82 °F 97 °F (1996)
Min Temperature 54 °F 63 °F 49 °F (1988)
Cooling Degree Days 5    
Growing Degree Days 20 (Base 50)    
Moisture  
Dew Point 54 °F    
Average Humidity 61    
Maximum Humidity 84    
Minimum Humidity 30    
Precipitation  
Precipitation 0.00 in - - ()
Sea Level Pressure  
Sea Level Pressure 29.89 in    
Wind  
Wind Speed 7 mph (ESE)    
Max Wind Speed 21 mph    
Max Gust Speed 31 mph    
Visibility 7 miles    
Events      
Averages and records for this station are not official NWS values.
T = Trace of Precipitation, MM = Missing Value Source: NWS Daily Summary

Daily Weather History Graph

Daily Weather History Graph

Search for Another Location

Airport or City:

Trip Planner

Search our weather history database for the weather conditions in past years. The results will help you decide how hot, cold, wet, or windy it might be!

Date:

Astronomy

Apr. 12, 2013 Rise Set
Actual Time 7:11 AM CDT 7:55 PM CDT
Civil Twilight 6:48 AM CDT 8:18 PM CDT
Nautical Twilight 6:20 AM CDT 8:46 PM CDT
Astronomical Twilight 5:52 AM CDT 9:14 PM CDT
Moon 8:34 AM CDT (4/12) 10:12 PM CDT (4/12)
Length of Visible Light 13h 30m
Length of Day
12h 43m
Waxing Crescent, 5% of the Moon is Illuminated
Apr 12
Waxing Crescent
Apr 18
First Quarter
Apr 25
Full
May 2
Last Quarter
May 9
New

Hourly Weather History & Observations

Time (CDT) Temp. Heat Index Dew Point Humidity Pressure Visibility Wind Dir Wind Speed Gust Speed Precip Events Conditions
12:15 AM 57.6 °F - 48.7 °F 72% 29.90 in 7.0 mi SE 3.5 mph - N/A   Clear
12:35 AM 57.4 °F - 49.1 °F 74% 29.90 in 7.0 mi Calm Calm - N/A   Clear
12:55 AM 57.7 °F - 49.6 °F 74% 29.90 in 7.0 mi Calm Calm - N/A   Clear
1:15 AM 56.8 °F - 50.0 °F 78% 29.89 in 7.0 mi SE 3.5 mph - N/A   Clear
1:35 AM 56.3 °F - 49.5 °F 78% 29.89 in 7.0 mi SE 3.5 mph - N/A   Clear
1:55 AM 55.9 °F - 50.0 °F 80% 29.89 in 7.0 mi SSE 3.5 mph - N/A   Clear
2:15 AM 55.8 °F - 50.0 °F 81% 29.88 in 7.0 mi East 3.5 mph - N/A   Clear
2:35 AM 55.4 °F - 49.1 °F 79% 29.88 in 7.0 mi Calm Calm - N/A   Clear
2:55 AM 55.4 °F - 49.1 °F 79% 29.88 in 7.0 mi Calm Calm - N/A   Clear
3:15 AM 55.4 °F - 49.8 °F 81% 29.87 in 7.0 mi Calm Calm - N/A   Clear
3:35 AM 55.2 °F - 50.0 °F 83% 29.89 in 7.0 mi Calm Calm - N/A   Clear
3:55 AM 54.9 °F - 49.5 °F 82% 29.89 in 7.0 mi Calm Calm - N/A   Scattered Clouds
4:15 AM 55.4 °F - 50.0 °F 82% 29.89 in 7.0 mi Calm Calm - N/A   Clear
4:35 AM 55.6 °F - 49.1 °F 79% 29.89 in 7.0 mi Calm Calm - N/A   Clear
4:55 AM 55.8 °F - 49.1 °F 78% 29.88 in 7.0 mi Calm Calm - N/A   Clear
5:15 AM 55.6 °F - 49.3 °F 79% 29.88 in 7.0 mi Calm Calm - N/A   Clear
5:35 AM 54.5 °F - 48.4 °F 80% 29.88 in 7.0 mi Calm Calm - N/A   Clear
5:55 AM 54.1 °F - 48.2 °F 80% 29.89 in 7.0 mi Calm Calm - N/A   Clear
6:15 AM 55.4 °F - 49.1 °F 79% 29.89 in 7.0 mi Calm Calm - N/A   Mostly Cloudy
6:35 AM 55.9 °F - 50.0 °F 80% 29.89 in 5.0 mi Calm Calm - N/A   Haze
6:55 AM 57.6 °F - 51.6 °F 81% 29.89 in 7.0 mi East 4.6 mph - N/A   Overcast
7:15 AM 59.0 °F - 53.4 °F 82% 29.89 in 7.0 mi East 6.9 mph - N/A   Mostly Cloudy
7:35 AM 57.9 °F - 52.7 °F 83% 29.90 in 5.0 mi Calm Calm - N/A   Haze
7:55 AM 59.4 °F - 54.5 °F 84% 29.90 in 5.0 mi ENE 3.5 mph - N/A   Haze
8:15 AM 61.5 °F - 56.1 °F 82% 29.91 in 5.0 mi East 4.6 mph - N/A   Haze
8:35 AM 64.8 °F - 57.9 °F 78% 29.92 in 5.0 mi ESE 5.8 mph - N/A   Haze
8:55 AM 67.1 °F - 58.5 °F 74% 29.93 in 5.0 mi ESE 6.9 mph - N/A   Haze
9:15 AM 69.1 °F - 59.0 °F 70% 29.93 in 5.0 mi East 10.4 mph - N/A   Haze
9:35 AM 70.0 °F - 59.0 °F 68% 29.94 in 5.0 mi East 11.5 mph - N/A   Haze
9:55 AM 71.4 °F - 59.4 °F 66% 29.94 in 5.0 mi East 10.4 mph - N/A   Haze
10:15 AM 72.9 °F - 59.0 °F 62% 29.94 in 5.0 mi East 10.4 mph - N/A   Haze
10:35 AM 73.9 °F - 58.6 °F 59% 29.94 in 5.0 mi East 12.7 mph - N/A   Haze
10:55 AM 74.1 °F - 57.7 °F 56% 29.94 in 5.0 mi East 9.2 mph 17.3 mph N/A   Haze
11:15 AM 74.3 °F - 57.9 °F 57% 29.95 in 7.0 mi ESE 8.1 mph - N/A   Clear
11:35 AM 77.5 °F - 57.0 °F 49% 29.94 in 7.0 mi SE 10.4 mph - N/A   Clear
11:55 AM 78.6 °F - 54.3 °F 43% 29.94 in 7.0 mi ESE 9.2 mph 19.6 mph N/A   Clear
12:15 PM 80.8 °F - 52.3 °F 37% 29.93 in 5.0 mi SE 11.5 mph 20.7 mph N/A   Haze
12:35 PM 81.0 °F 80.4 °F 53.4 °F 38% 29.92 in 7.0 mi East 12.7 mph 18.4 mph N/A   Clear
12:55 PM 82.4 °F - 51.8 °F 35% 29.91 in 5.0 mi SE 11.5 mph - N/A   Haze
1:15 PM 83.7 °F - 52.2 °F 34% 29.90 in 4.0 mi SE 8.1 mph 17.3 mph N/A   Haze
1:35 PM 84.6 °F - 51.1 °F 31% 29.90 in 7.0 mi SE 12.7 mph 23.0 mph N/A   Clear
1:55 PM 84.9 °F - 50.4 °F 30% 29.89 in 7.0 mi ESE 11.5 mph 23.0 mph N/A   Clear
2:15 PM 86.0 °F - 50.7 °F 30% 29.87 in 7.0 mi ESE 18.4 mph 28.8 mph N/A   Clear
2:35 PM 84.7 °F - 51.1 °F 31% 29.87 in 7.0 mi East 15.0 mph 20.7 mph N/A   Clear
2:55 PM 85.1 °F - 51.8 °F 32% 29.86 in 7.0 mi East 15.0 mph 26.5 mph N/A   Clear
3:15 PM 84.7 °F - 50.9 °F 31% 29.86 in 7.0 mi ESE 16.1 mph 23.0 mph N/A   Clear
3:35 PM 85.3 °F - 51.4 °F 31% 29.85 in 7.0 mi ESE 13.8 mph 23.0 mph N/A   Clear
3:55 PM 84.9 °F - 51.6 °F 32% 29.84 in 5.0 mi East 18.4 mph 25.3 mph N/A   Haze
4:15 PM 84.7 °F - 52.2 °F 32% 29.83 in 7.0 mi East 20.7 mph 31.1 mph N/A   Clear
4:35 PM 84.2 °F - 51.8 °F 33% 29.83 in 7.0 mi ESE 17.3 mph 25.3 mph N/A   Clear
4:55 PM 83.7 °F - 52.0 °F 33% 29.83 in 5.0 mi ESE 19.6 mph 24.2 mph N/A   Haze
5:15 PM 83.5 °F 82.1 °F 53.2 °F 35% 29.83 in 7.0 mi ESE 19.6 mph 25.3 mph N/A   Clear
5:35 PM 82.6 °F 81.6 °F 53.6 °F 37% 29.83 in 7.0 mi SE 18.4 mph 26.5 mph N/A   Clear
5:55 PM 81.5 °F 81.0 °F 54.7 °F 40% 29.83 in 7.0 mi East 16.1 mph 25.3 mph N/A   Clear
6:15 PM 80.4 °F 80.5 °F 55.8 °F 43% 29.84 in 7.0 mi ESE 18.4 mph 24.2 mph N/A   Clear
6:35 PM 78.3 °F - 56.7 °F 47% 29.85 in 7.0 mi ESE 17.3 mph 23.0 mph N/A   Clear
6:55 PM 77.2 °F - 57.2 °F 50% 29.85 in 7.0 mi ESE 19.6 mph 23.0 mph N/A   Clear
7:15 PM 76.8 °F - 57.2 °F 51% 29.85 in 7.0 mi East 18.4 mph - N/A   Clear
7:35 PM 75.7 °F - 58.1 °F 54% 29.86 in 7.0 mi ESE 17.3 mph - N/A   Clear
7:55 PM 74.5 °F - 58.5 °F 57% 29.86 in 7.0 mi East 16.1 mph - N/A   Clear
8:15 PM 73.6 °F - 58.8 °F 60% 29.87 in 7.0 mi ESE 16.1 mph - N/A   Clear
8:35 PM 72.9 °F - 59.0 °F 62% 29.87 in 7.0 mi ESE 13.8 mph 20.7 mph N/A   Clear
8:55 PM 72.5 °F - 59.2 °F 63% 29.88 in 7.0 mi ESE 15.0 mph - N/A   Clear
9:15 PM 72.1 °F - 59.5 °F 64% 29.89 in 7.0 mi ESE 15.0 mph 21.9 mph N/A   Clear
9:35 PM 71.6 °F - 59.9 °F 66% 29.89 in 10.0 mi ESE 12.7 mph 18.4 mph N/A   Clear
9:55 PM 71.1 °F - 60.8 °F 70% 29.90 in 10.0 mi ESE 11.5 mph 17.3 mph N/A   Clear
10:15 PM 70.9 °F - 61.2 °F 71% 29.91 in 7.0 mi ESE 13.8 mph 18.4 mph N/A   Clear
10:35 PM 70.7 °F - 61.7 °F 73% 29.91 in 7.0 mi ESE 13.8 mph - N/A   Clear
10:55 PM 70.3 °F - 61.7 °F 74% 29.92 in 7.0 mi ESE 11.5 mph - N/A   Clear
11:15 PM 70.0 °F - 61.9 °F 75% 29.92 in 7.0 mi ESE 11.5 mph - N/A   Clear
11:35 PM 69.4 °F - 61.7 °F 76% 29.93 in 7.0 mi ESE 10.4 mph - N/A   Clear
11:55 PM 69.1 °F - 61.7 °F 77% 29.93 in 7.0 mi ESE 10.4 mph - N/A   Clear